Location: Bishop�s Knoyle
(51.0728°N, 2.1714°W)
Time: 03:42:04
(UTC+00:00)

USA 186 - Pass Details

Date: 18 September 2020
Orbit: 261 x 425 km, 96.9° (Epoch: 12 October)

Event Time Altitude Azimuth Distance (km) Brightness Sun altitude
Exits shadow 20:20:54 - 207° (SSW) 1,561 4.6 -19.7°
Reaches altitude 10° 20:21:13 10° 211° (SSW) 1,447 4.5 -19.7°
Maximum altitude 20:23:47 23° 267° (W) 917 4.1 -20.1°
Drops below altitude 10° 20:26:28 10° 322° (NW) 1,511 5.6 -20.5°
Sets 20:28:47 0° 337° (NNW) 2,398 6.4 -20.8°
